Kansas Department of Transportation
RWIS(Road and Runway Information System) Map and Weather Data





Station
Surface
Air
Wind
Site IDSensor TypeLocationTemperature (°F)Temperature (°F)Humidity (%)Speed (mi/h)Gusts (mi/h)DirectionTime
123002AtmosphericBonner Springs 2758714WJan 18 2020 11:25AM
123002ApproachBonner Springs45     Jan 18 2020 11:25AM
123002DeckBonner Springs43     Jan 18 2020 11:25AM
123014AtmosphericBull Creek 2860917NJan 18 2020 11:25AM
123014DeckBull Creek46     Jan 18 2020 11:25AM
123014DepartureBull Creek48     Jan 18 2020 11:25AM
123015AtmosphericLeavenworth 2565817NNWJan 18 2020 11:25AM
123015DeckLeavenworth36     Jan 18 2020 11:25AM
123015DepartureLeavenworth36     Jan 18 2020 11:25AM
123020AtmosphericMayetta 25501216NWJan 18 2020 11:25AM
123020RoadwayMayettaUnavailable     Jan 18 2020 11:25AM
123020DeckMayettaUnavailable     Jan 18 2020 11:25AM
505000AtmosphericKTA 1 3938612NNWJan 18 2020 11:20AM
505000ApproachKTA 148     Jan 18 2020 11:30AM
505000DeckKTA 150     Jan 18 2020 11:30AM
505002AtmosphericKTA 3 366049ENEJan 18 2020 11:22AM
505002ApproachKTA 352     Jan 18 2020 11:22AM
505002DeckKTA 350     Jan 18 2020 11:22AM
505003AtmosphericKTA 4 34431221NJan 18 2020 11:22AM
505003ApproachKTA 446     Jan 18 2020 11:22AM
505003DeckKTA 445     Jan 18 2020 11:22AM
505004AtmosphericKTA 5 32961619SSEJan 18 2020 11:22AM
505004RoadwayKTA 548     Jan 18 2020 11:22AM
505004RoadwayKTA 548     Jan 18 2020 11:22AM
505005AtmosphericKTA 6 3246715WNWJan 18 2020 11:22AM
505005Approach KTA 646     Jan 18 2020 11:22AM
505005DeckKTA 639     Jan 18 2020 11:22AM
505006AtmosphericKTA 7 2857814NWJan 18 2020 11:22AM
505006ApproachKTA 741     Jan 18 2020 11:22AM
505006DeckKTA 739     Jan 18 2020 11:22AM
505007AtmosphericKTA 8 2859613NWJan 18 2020 11:22AM
505007ApproachKTA 843     Jan 18 2020 11:22AM
505007DeckKTA 839     Jan 18 2020 11:22AM
505008AtmosphericKTA 9 2855715WJan 18 2020 11:22AM
505008ApproachKTA 941     Jan 18 2020 11:22AM
505008DeckKTA 941     Jan 18 2020 11:22AM
505009AtmosphericKTA 10 486769NWJan 18 2020 11:22AM
505009ApproachKTA 1043     Jan 18 2020 11:22AM
505009DeckKTA 1039     Jan 18 2020 11:22AM
505010AtmosphericWebb 36421013WNWJan 18 2020 11:25AM
505010DeckWebb46     Jan 18 2020 11:25AM
505010NullWebb48     Jan 18 2020 11:25AM
505014AtmosphericI-135 34501118NJan 18 2020 11:20AM
505014ApproachI-13546     Jan 18 2020 11:30AM
505014DeckI-13552     Jan 18 2020 11:30AM
540000AtmosphericBlue Rapids 2752411WNWJan 18 2020 11:25AM
540000DeckBlue Rapids34     Jan 18 2020 11:25AM
540000DepartureBlue RapidsUnavailable     Jan 18 2020 11:25AM
540001AtmosphericSabetha 1966915NWJan 18 2020 11:25AM
540001ApproachSabethaUnavailable     Jan 18 2020 11:25AM
540001DeckSabethaUnavailable     Jan 18 2020 11:25AM
540002AtmosphericWestgate 2849916NWJan 18 2020 11:25AM
540002DeckWestgate43     Jan 18 2020 11:25AM
540002DepartureWestgateUnavailable     Jan 18 2020 11:25AM
540003AtmosphericEmporia 3257714NJan 18 2020 11:25AM
540003ApproachEmporia50     Jan 18 2020 11:25AM
540003DeckEmporia45     Jan 18 2020 11:25AM
540005AtmosphericLawrence 2759917WSWJan 18 2020 11:25AM
540005ApproachLawrence43     Jan 18 2020 11:25AM
540005DeckLawrence45     Jan 18 2020 11:25AM
540006AtmosphericTroy 2178914WNWJan 18 2020 11:25AM
540006DeckTroy36     Jan 18 2020 11:25AM
540006DepartureTroy36     Jan 18 2020 11:25AM
540007AtmosphericManhattan 2854610NWJan 18 2020 11:25AM
540007DepartureManhattan37     Jan 18 2020 11:25AM
540007DeckManhattan39     Jan 18 2020 11:25AM
541001AtmosphericSyracuse 345069NNWJan 18 2020 11:25AM
541001Out of Service for WinterSyracuse39     Jan 18 2020 11:25AM
541001DeckSyracuse39     Jan 18 2020 11:25AM
541003AtmosphericFord 373558NJan 18 2020 11:25AM
541003DeckFord48     Jan 18 2020 11:25AM
541003DepartureFord50     Jan 18 2020 11:25AM
541004AtmosphericScott 344469ENEJan 18 2020 11:25AM
541004DepartureScott39     Jan 18 2020 11:25AM
541005AtmosphericNess 364367NNWJan 18 2020 11:25AM
541005DeckNess37     Jan 18 2020 11:25AM
541005DepartureNess39     Jan 18 2020 11:25AM
543000AtmosphericJunction City 304849NNEJan 18 2020 11:25AM
543000ApproachJunction City43     Jan 18 2020 11:25AM
543000DeckJunction City46     Jan 18 2020 11:25AM
543001AtmosphericEllsworth 34511220NWJan 18 2020 11:25AM
543001RoadwayEllsworth45     Jan 18 2020 11:25AM
543003AtmosphericSalina 34321013NJan 18 2020 11:25AM
543003DepartureSalina45     Jan 18 2020 11:25AM
543003RoadwaySalina43     Jan 18 2020 11:25AM
543004AtmosphericConcordia 30531117NWJan 18 2020 11:25AM
543004ApproachConcordia41     Jan 18 2020 11:25AM
543004DeckConcordia41     Jan 18 2020 11:25AM
543005AtmosphericPeabody 285200NWJan 18 2020 11:25AM
543005ApproachPeabody46     Jan 18 2020 11:25AM
543005DeckPeabodyUnavailable     Jan 18 2020 11:25AM
560000AtmosphericEdson 3438611NWJan 18 2020 11:25AM
560000RoadwayEdson39     Jan 18 2020 11:25AM
560000RoadwayEdson39     Jan 18 2020 11:25AM
560001AtmosphericOakley 3245911NNWJan 18 2020 11:25AM
560001ApproachOakley37     Jan 18 2020 11:25AM
560001DeckOakley37     Jan 18 2020 11:25AM
560002AtmosphericAtwood 3637711NNWJan 18 2020 11:25AM
560002ApproachAtwood37     Jan 18 2020 11:25AM
560002DeckAtwoodUnavailable     Jan 18 2020 11:25AM
560003AtmosphericJennings 345329NWJan 18 2020 11:25AM
560003ApproachJennings45     Jan 18 2020 11:25AM
560003DeckJennings32     Jan 18 2020 11:25AM
560003DeckJennings32     Jan 18 2020 11:25AM
560004AtmosphericWakeeney 3250712NJan 18 2020 11:25AM
560004ApproachWakeeney37     Jan 18 2020 11:25AM
560004DeckWakeeney39     Jan 18 2020 11:25AM
560005AtmosphericWalker 3452812NJan 18 2020 11:25AM
560005ApproachWalker48     Jan 18 2020 11:25AM
560005DeckWalker45     Jan 18 2020 11:25AM
560006AtmosphericBow Creek(Stockton) 363779NNWJan 18 2020 11:25AM
560006ApproachBow Creek(Stockton)46     Jan 18 2020 11:25AM
560006DeckBow Creek(Stockton)43     Jan 18 2020 11:25AM
560007AtmosphericLebanon 3254811NWJan 18 2020 11:25AM
560007ApproachLebanon37     Jan 18 2020 11:25AM
560007DeckLebanon37     Jan 18 2020 11:25AM
560008AtmosphericWallace 363927NWJan 18 2020 11:25AM
560008ApproachWallace41     Jan 18 2020 11:25AM
560008DeckWallace39     Jan 18 2020 11:25AM
572000AtmosphericGreat Bend 36521017NJan 18 2020 11:25AM
572000ApproachGreat Bend50     Jan 18 2020 11:25AM
572000DeckGreat Bend46     Jan 18 2020 11:25AM
572001AtmosphericPratt 392929NJan 18 2020 11:25AM
572001ApproachPratt48     Jan 18 2020 11:25AM
572001DeckPratt52     Jan 18 2020 11:25AM
572002AtmosphericAnthony 4146512NNWJan 18 2020 11:25AM
572002ApproachAnthony54     Jan 18 2020 11:25AM
572002DeckAnthony48     Jan 18 2020 11:25AM
573000AtmosphericEureka 34521324NNWJan 18 2020 11:25AM
573000DeckEureka50     Jan 18 2020 11:25AM
573000DepartureEureka45     Jan 18 2020 11:25AM
573001AtmosphericGarnett 2862811NNWJan 18 2020 11:25AM
573001ApproachGarnett46     Jan 18 2020 11:25AM
573001DeckGarnett46     Jan 18 2020 11:25AM
573002AtmosphericCaney 3726511WJan 18 2020 11:25AM
573002RoadwayCaney55     Jan 18 2020 11:25AM
573003AtmosphericChetopa 3656416NWJan 18 2020 11:25AM
573003DeckChetopa55     Jan 18 2020 11:25AM
573003DeckChetopa55     Jan 18 2020 11:25AM
573003DepartureChetopa55     Jan 18 2020 11:25AM
573004AtmosphericChanute 3458712NWJan 18 2020 11:25AM
573004ApproachChanute52     Jan 18 2020 11:25AM
573004DeckChanute52     Jan 18 2020 11:25AM